RH
25 25 30 27 34 33 34 33 34 34 26 34 32 23 17 16 16 18 18 17 17 18 16 18 47 57 48 36 34 28 31 42 53 69 83 86 89 84 81 80 79 79 81 85
29 31 25 22 25 29 30 32 31 30 28 24 17 17 14 14 18 15 15 17 18 20 28 55 62 66 70 72 72 70 60 37 36 52 65 67 74 81 81 86 86 83 85 84
30 27 27 27 26 29 31 32 29 23 20 16 18 17 14 12 13 17 32 60 69 72 72 68 65 66 67 68 70 69 68 69 63 38 54 69 76 83 94 94 92 90 86 83
30 21 21 21 20 19 23 21 20 22 22 21 21 25 18 15 22 62 72 72 72 72 68 65 66 66 66 67 67 67 68 68 65 64 46 69 68 72 75 79 82 90 90 86
25 24 28 28 24 19 25 21 26 28 30 37 28 34 18 15 43 74 72 69 71 70 71 72 70 69 67 68 71 72 70 69 67 71 60 68 71 66 64 75 83 88 91 87
26 29 26 26 23 25 33 37 37 40 42 40 25 26 23 67 93 88 74 70 72 71 72 70 68 67 72 69 75 76 76 72 71 75 69 72 74 69 69 76 87 88 92 93
39 31 35 36 38 39 35 38 52 55 60 40 34 34 34 90 85 81 84 76 72 67 75 79 76 77 80 81 84 82 80 81 78 81 68 73 75 75 76 76 77 83 90 96
43 36 44 38 39 39 39 39 46 54 48 39 28 31 56 69 63 65 66 68 67 71 74 82 79 81 88 88 89 88 87 86 84 87 88 71 77 78 76 75 74 78 83 89
45 52 41 38 32 32 49 56 36 48 40 50 35 51 69 60 65 65 77 68 75 80 83 89 81 81 82 87 91 91 89 88 88 91 92 84 80 86 84 80 79 82 81 89
53 66 42 34 40 40 40 39 70 62 87 76 49 47 75 90 86 78 83 85 82 84 90 93 92 94 85 87 91 89 88 90 89 90 92 93 88 90 89 88 83 81 83 87
54 53 43 48 48 44 59 60 54 54 54 77 74 86 96 95 92 90 84 82 90 92 95 96 96 96 98 96 92 87 85 87 91 90 91 95 97 94 91 93 86 82 89 91
58 80 76 58 42 52 47 50 78 87 72 81 85 87 86 93 92 90 70 77 72 92 94 96 97 97 96 95 96 90 87 88 89 90 91 94 95 97 97 98 97 95 94 92
74 76 72 61 87 67 62 66 80 98 86 84 90 94 84 93 81 68 78 70 68 74 85 89 94 92 93 86 86 87 86 88 87 88 92 93 95 96 98 98 98 98 98 98
73 80 79 46 32 41 69 74 78 94 92 68 93 93 88 89 73 71 77 70 77 80 86 84 82 85 81 80 86 95 85 89 86 86 89 93 94 95 96 97 97 98 98 98
87 87 86 81 62 66 93 89 89 93 81 84 95 90 92 90 85 83 76 74 74 79 81 88 90 91 84 83 81 80 83 85 95 86 89 93 92 90 92 93 93 93 93 92
92 88 97 96 63 84 90 92 93 94 95 92 92 88 74 74 71 77 80 82 78 82 85 86 85 84 87 88 91 85 84 87 83 90 92 88 90 90 92 92 92 92 92 91
98 95 92 89 85 84 93 96 94 94 87 90 83 79 73 76 76 86 83 84 86 86 87 88 89 89 91 92 91 92 90 88 84 90 95 96 93 97 100 90 91 92 96 92
98 96 89 88 95 92 96 93 75 79 80 74 74 76 77 82 87 88 88 88 85 87 87 83 82 83 89 81 86 77 72 83 91 84 90 95 95 95 99 99 97 99 96 97
100 97 91 95 88 91 92 83 88 86 88 83 79 80 81 85 85 85 83 87 92 93 92 94 92 88 86 88 87 78 78 77 80 87 89 92 95 96 96 96 97 97 94 92
99 99 87 87 86 85 80 72 71 78 91 80 76 77 81 80 80 89 88 88 90 93 93 93 92 85 90 94 87 90 88 87 91 94 93 89 88 91 96 97 98 98 94 96
87 95 90 88 80 80 77 76 78 97 94 83 77 82 84 86 87 91 90 89 89 91 93 91 92 95 95 93 90 93 92 96 94 91 89 91 91 92 93 92 93 99 98 95
91 94 90 86 81 85 76 79 86 90 87 83 85 91 95 93 92 92 91 92 90 92 91 92 94 94 94 93 91 92 95 92 90 89 91 92 92 93 91 91 91 90 92 92
90 92 89 88 83 86 88 91 86 75 84 85 84 85 90 92 94 91 92 88 88 91 91 88 94 92 91 92 93 93 96 87 87 88 91 93 91 89 91 91 91 89 90 89
90 80 79 82 88 88 88 86 82 79 89 84 82 84 83 92 90 92 87 85 84 84 86 82 82 89 92 90 91 94 91 90 86 86 88 90 92 91 92 86 86 88 88 90
87 78 76 88 88 82 86 87 88 91 88 88 86 84 87 83 83 80 82 82 83 82 81 80 81 82 85 82 87 89 87 85 84 83 83 85 81 87 84 87 88 86 93 90
88 89 88 86 79 79 88 91 87 88 90 84 83 84 77 72 74 63 62 58 58 61 59 60 63 66 68 68 74 70 67 69 75 74 67 74 73 74 72 73 72 72 74 75
Wind_Speed
1 4 8 11 11 3 3 5 10 9 12 10 12 27 21 12 14 15 14 16 19 20 19 14 8 11 10 9 13 13 13 12 10 12 12 11 12 12 12 11 15 15 14 14
2 9 10 4 3 5 5 7 8 8 4 9 16 31 26 13 7 14 17 17 21 24 19 13 14 12 12 13 12 12 12 13 12 12 12 12 12 13 12 11 12 15 16 17
8 2 5 6 3 4 4 5 6 12 7 11 16 23 6 9 10 8 12 15 16 17 18 19 19 17 16 15 15 15 15 14 12 15 12 11 10 10 9 10 12 15 18 18
5 1 4 5 4 5 7 10 10 7 7 7 4 15 20 2 10 14 14 15 16 17 18 19 20 20 20 18 16 18 18 18 14 13 15 19 15 16 14 13 14 13 17 18
2 6 3 4 4 4 5 5 8 8 9 11 12 7 13 17 7 12 14 15 16 17 17 19 19 20 19 18 18 16 19 19 17 15 17 15 19 14 13 13 16 15 14 18
0 2 3 3 2 2 3 5 6 8 5 8 6 9 11 5 5 8 13 15 15 17 18 18 19 18 17 17 17 16 18 18 17 15 19 22 22 18 15 15 12 11 10 12
2 3 1 1 3 3 3 4 3 4 6 7 3 8 6 3 7 9 12 14 16 18 18 18 20 20 19 19 18 17 17 18 17 16 17 22 21 19 19 17 13 14 11 9
3 3 5 1 2 1 3 3 4 6 3 4 12 9 3 6 7 11 13 14 16 18 18 18 19 18 17 19 18 18 17 17 16 15 13 17 17 12 13 15 11 10 11 11
5 5 3 6 2 4 3 8 6 12 13 10 7 2 6 7 11 14 15 17 19 20 20 19 19 18 19 18 19 19 17 16 15 15 12 10 11 12 12 14 13 11 13 10
1 4 7 6 3 6 13 1 3 4 4 6 5 9 3 13 16 16 17 17 18 18 19 18 18 18 17 17 16 16 16 16 15 15 11 9 9 11 10 11 15 15 12 12
3 4 2 4 6 4 4 4 7 4 6 5 4 1 7 8 10 14 14 16 16 17 17 17 17 17 16 15 15 14 15 16 16 17 14 13 3 7 9 9 10 13 10 10
2 2 5 8 8 7 8 4 3 3 3 3 6 3 8 8 9 11 13 14 16 15 16 15 15 17 16 16 15 15 18 18 17 16 15 14 12 5 5 4 5 6 7 8
5 3 4 3 4 2 3 4 4 6 7 12 6 3 7 8 10 12 14 16 17 18 18 16 15 16 16 16 16 18 17 17 17 16 16 16 15 14 4 6 7 6 7 6
3 4 6 7 6 5 5 7 11 8 7 7 3 5 9 11 13 15 16 16 16 17 19 18 18 17 16 18 20 18 19 19 19 16 17 17 16 15 14 10 10 9 8 7
6 6 9 14 16 12 8 4 4 7 16 7 6 5 7 10 10 13 13 15 18 19 21 20 20 19 20 21 19 19 18 20 18 19 19 18 17 16 16 17 15 14 15 13
5 3 1 6 11 6 7 7 3 8 8 11 12 9 5 7 8 13 15 16 18 19 19 19 20 21 21 22 21 20 20 19 19 16 18 18 16 18 19 17 15 15 14 15
3 3 2 5 14 10 4 5 4 4 11 2 2 6 5 8 12 13 14 14 16 17 18 19 19 19 18 19 18 18 18 17 19 19 19 17 18 14 18 15 16 17 14 16
3 5 3 3 5 2 5 8 9 12 8 8 11 8 7 10 10 12 13 13 15 16 17 17 17 18 19 19 19 18 18 18 19 19 19 20 18 15 17 16 18 17 13 17
11 5 3 4 2 4 5 1 1 4 5 5 2 5 7 8 5 12 13 12 12 13 13 13 13 16 17 19 18 18 19 19 20 21 21 20 19 20 18 16 17 13 10 14
3 10 6 3 4 5 4 2 2 3 2 4 1 3 2 8 3 4 10 11 12 12 13 14 15 15 16 17 16 16 18 19 20 19 18 17 17 17 17 15 14 12 12 13
2 2 6 3 3 2 3 7 2 4 4 6 6 4 6 6 6 5 7 10 11 11 13 14 13 14 15 15 15 17 17 19 16 15 16 17 18 18 17 16 15 13 13 12
2 1 1 1 2 4 7 2 3 7 9 10 10 11 15 12 9 7 8 10 11 12 13 14 11 13 14 15 14 16 17 15 14 14 15 16 16 13 13 15 14 15 13 14
1 3 2 4 3 4 5 9 6 7 12 9 11 9 11 11 9 7 7 10 10 11 10 11 9 11 13 14 14 16 14 14 13 14 14 14 14 15 14 15 15 12 14 12
3 0 4 5 4 6 6 8 8 8 11 11 11 10 10 12 9 8 7 8 8 10 11 10 12 12 13 12 13 13 13 12 13 14 14 13 13 14 14 12 12 13 13 11
1 0 7 5 6 8 6 8 10 12 12 13 10 10 10 11 9 8 8 8 7 8 9 10 11 12 14 14 14 13 13 13 12 12 12 13 12 13 11 12 13 12 13 15
1 3 3 2 9 4 7 8 10 12 12 12 13 12 10 10 10 9 9 7 7 8 8 9 11 12 12 13 14 15 15 14 13 13 12 11 10 10 10 9 8 19 21 24
Wind_Direction
72 209 216 234 217 255 258 253 268 272 274 291 290 291 295 296 282 296 295 297 290 290 300 301 310 326 324 310 306 289 272 253 233 218 201 200 207 205 205 203 202 198 200 203
146 240 236 242 216 239 250 277 283 286 274 291 303 290 301 289 264 290 297 300 304 314 327 332 332 335 333 322 316 312 303 285 246 228 217 208 200 211 213 204 200 199 198 201
208 192 114 178 196 234 243 259 266 279 301 269 292 287 272 286 315 312 353 21 15 358 347 342 338 335 330 324 324 317 308 295 278 247 227 214 207 209 196 196 201 199 200 199
220 127 158 172 216 234 274 233 261 277 318 303 10 291 301 356 11 28 26 14 5 359 352 344 337 334 331 325 322 318 310 299 282 267 233 211 208 205 207 203 205 198 194 196
184 163 152 201 204 177 279 305 295 294 285 301 245 238 272 332 354 3 356 359 358 354 351 340 337 331 326 327 324 323 313 296 287 265 242 218 214 211 203 200 203 201 192 200
167 340 240 221 192 225 324 312 296 277 252 255 230 229 295 6 0 349 352 355 355 350 344 340 333 332 327 329 324 324 315 308 294 292 235 223 216 209 203 200 194 197 193 192
330 245 142 80 158 87 81 43 304 243 191 246 46 316 279 31 24 354 352 352 351 351 348 343 338 335 329 328 325 322 317 313 312 305 243 219 217 214 210 203 197 189 186 189
228 236 166 151 135 119 313 231 224 267 254 287 314 256 97 64 28 7 359 352 353 352 352 345 338 330 329 324 324 318 316 321 320 317 316 220 214 213 212 206 194 191 192 198
199 249 277 211 213 185 153 211 238 258 272 270 237 178 177 35 13 8 359 355 357 354 349 343 334 333 334 329 326 318 320 327 326 324 322 272 207 201 203 198 189 185 186 182
123 275 258 292 309 224 217 233 163 199 236 245 246 239 290 357 350 355 357 351 353 351 345 340 337 332 333 328 321 322 328 333 335 335 330 313 209 185 185 184 189 191 185 179
150 207 220 311 218 201 160 220 221 254 252 295 314 126 30 10 360 354 352 353 352 347 343 341 335 332 329 327 329 334 344 348 350 351 339 337 213 169 181 186 193 189 173 175
160 186 259 248 286 270 235 213 164 254 195 285 297 208 42 24 18 2 355 356 353 350 345 342 335 333 338 345 343 343 2 360 356 357 352 0 3 141 153 158 153 143 153 161
165 202 291 162 243 204 132 188 264 270 254 241 253 119 48 32 26 11 1 1 355 355 353 350 348 347 352 347 347 3 4 2 3 3 6 12 11 8 98 120 114 114 124 131
130 218 223 255 285 339 295 270 285 264 244 254 319 114 12 21 19 10 7 2 359 358 358 352 353 355 357 6 7 5 3 5 5 7 22 20 15 14 19 46 64 72 81 95
178 243 225 248 266 277 277 292 334 305 239 226 108 88 30 29 18 14 7 3 6 5 3 359 356 353 360 9 9 7 6 9 8 15 22 21 21 22 29 35 39 52 53 50
186 244 249 267 266 212 84 31 14 4 48 91 111 88 55 49 41 25 14 8 8 6 3 360 359 1 4 6 6 6 8 14 13 14 25 24 27 29 34 29 37 50 51 53
185 219 271 323 131 141 103 29 49 72 27 7 110 110 122 63 46 29 13 11 9 3 3 1 4 4 3 6 6 8 9 9 20 21 20 30 24 20 47 29 44 46 43 54
228 176 199 224 210 232 108 107 105 90 49 57 99 126 114 105 84 44 26 15 13 6 4 2 4 3 5 7 11 13 17 20 24 26 25 29 24 21 36 35 36 38 36 54
209 188 225 228 119 101 169 130 205 1 65 30 104 144 157 164 145 49 25 21 17 10 5 358 4 9 9 13 9 17 23 23 22 20 22 23 24 30 32 32 44 40 46 51
166 208 203 168 176 201 89 22 338 299 96 34 27 110 117 167 103 35 12 19 19 18 15 5 8 12 15 8 14 21 28 25 23 18 19 22 27 32 33 30 36 36 46 55
19 46 205 158 115 131 30 317 262 241 114 84 75 88 94 92 62 66 35 34 30 27 18 13 14 20 15 6 14 24 24 28 21 20 25 25 26 30 28 31 34 32 41 44
53 303 71 300 145 178 357 196 259 105 104 110 96 95 98 102 94 74 52 41 31 26 19 13 16 20 16 13 20 27 27 16 17 23 29 32 30 32 32 35 34 36 36 41
148 10 115 3 48 52 17 69 93 120 129 121 117 120 117 108 89 78 60 46 34 27 25 21 18 20 21 17 21 28 12 17 19 27 28 26 33 35 37 37 36 34 33 36
96 1 91 171 112 98 79 77 82 108 114 119 126 128 117 114 109 95 76 60 43 30 26 22 33 31 24 15 19 19 12 11 25 26 24 25 29 31 29 39 36 37 35 33
38 179 125 90 119 114 95 107 116 110 112 112 110 112 112 110 99 99 84 68 60 45 28 26 32 34 26 20 20 15 17 20 33 33 29 27 30 30 33 39 34 36 35 34
199 148 182 195 168 114 129 138 134 129 129 128 124 113 108 111 110 101 88 78 67 59 44 40 40 41 32 30 27 23 25 31 32 37 33 28 31 29 34 34 47 44 43 41